When you browse on this site, cookies collect data to enhance your experience and personalize the content and advertising you see.
Visit our Privacy Policy to learn more. By continuing to use the site, you agree to this use of cookies and data.
  • En España
  • Lista de países
  • Para 7 días
  • Temperatura del agua
  • Mapa Satelital
  • El tiempo en el mapa
  • Informadores
  • user-avatar
    Iniciar sesión

    Tiempo cada hora Tibissa

    Hoy, 17 Diciembre, Lunes

    Tiempo Temperatura Precipitaciones Viento Presión Humedad
    00:00 +10°C° 0 mm 3 mps 689 mmHg 60%
    01:00 +10°C° 0 mm 3 mps 688 mmHg 62%
    02:00 +10°C° 0 mm 3 mps 688 mmHg 62%
    03:00 +10°C° 0 mm 3 mps 688 mmHg 62%
    04:00 +8°C° 0 mm 4 mps 688 mmHg 62%
    05:00 +9°C° 0 mm 3 mps 688 mmHg 62%
    06:00 +9°C° 0 mm 3 mps 688 mmHg 62%
    07:00 +8°C° 0 mm 2 mps 688 mmHg 63%
    08:00 +10°C° 0 mm 3 mps 688 mmHg 59%
    09:00 +11°C° 0 mm 4 mps 689 mmHg 55%
    10:00 +12°C° 0 mm 5 mps 689 mmHg 50%
    11:00 +12°C° 0 mm 7 mps 690 mmHg 50%
    12:00 +12°C° 0 mm 8 mps 690 mmHg 50%
    13:00 +13°C° 0 mm 10 mps 690 mmHg 50%
    14:00 +12°C° 0 mm 10 mps 690 mmHg 52%
    15:00 +11°C° 0 mm 10 mps 690 mmHg 55%
    16:00 +11°C° 0 mm 10 mps 690 mmHg 57%
    17:00 +9°C° 0 mm 8 mps 690 mmHg 63%
    18:00 +8°C° 0 mm 7 mps 690 mmHg 70%
    19:00 +7°C° 0 mm 6 mps 691 mmHg 76%
    20:00 +5°C° 0 mm 6 mps 691 mmHg 79%
    21:00 +5°C° 0 mm 6 mps 691 mmHg 81%
    22:00 +4°C° 0 mm 6 mps 691 mmHg 84%
    23:00 +4°C° 0 mm 6 mps 692 mmHg 85%

    Mañana, 18 Diciembre, Martes

    Tiempo Temperatura Precipitaciones Viento Presión Humedad
    00:00 +4°C° 0 mm 6 mps 692 mmHg 86%
    01:00 +3°C° 0 mm 5 mps 692 mmHg 87%
    02:00 +3°C° 0 mm 5 mps 692 mmHg 86%
    03:00 +4°C° 0 mm 4 mps 691 mmHg 85%
    04:00 +4°C° 0 mm 4 mps 691 mmHg 85%
    05:00 +3°C° 0 mm 4 mps 691 mmHg 83%
    06:00 +3°C° 0 mm 3 mps 691 mmHg 81%
    07:00 +3°C° 0 mm 3 mps 691 mmHg 79%
    08:00 +4°C° 0 mm 3 mps 692 mmHg 70%
    09:00 +7°C° 0 mm 2 mps 692 mmHg 61%
    10:00 +8°C° 0 mm 2 mps 693 mmHg 52%
    11:00 +9°C° 0 mm 2 mps 693 mmHg 45%
    12:00 +10°C° 0 mm 2 mps 692 mmHg 38%
    13:00 +13°C° 0 mm 1 mps 692 mmHg 31%
    14:00 +13°C° 0 mm 2 mps 692 mmHg 30%
    15:00 +13°C° 0 mm 2 mps 692 mmHg 30%
    16:00 +14°C° 0 mm 2 mps 692 mmHg 29%
    17:00 +12°C° 0 mm 2 mps 691 mmHg 36%
    18:00 +10°C° 0 mm 2 mps 691 mmHg 42%
    19:00 +8°C° 0 mm 2 mps 691 mmHg 48%
    20:00 +8°C° 0 mm 2 mps 691 mmHg 50%
    21:00 +7°C° 0 mm 2 mps 691 mmHg 52%
    22:00 +7°C° 0 mm 2 mps 691 mmHg 54%
    23:00 +7°C° 0 mm 3 mps 690 mmHg 55%

    Pasado mañana, 19 Diciembre, Miércoles

    Tiempo Temperatura Precipitaciones Viento Presión Humedad
    00:00 +5°C° 0 mm 3 mps 690 mmHg 56%
    01:00 +5°C° 0 mm 3 mps 690 mmHg 57%
    02:00 +5°C° 0 mm 3 mps 689 mmHg 57%
    03:00 +5°C° 0 mm 3 mps 689 mmHg 58%
    04:00 +4°C° 0 mm 3 mps 689 mmHg 58%
    05:00 +4°C° 0 mm 3 mps 689 mmHg 59%
    06:00 +4°C° 0 mm 3 mps 689 mmHg 59%
    07:00 +4°C° 0 mm 3 mps 689 mmHg 60%
    08:00 +7°C° 0 mm 3 mps 689 mmHg 55%
    09:00 +9°C° 0 mm 3 mps 690 mmHg 50%
    10:00 +11°C° 0 mm 3 mps 690 mmHg 45%
    11:00 +12°C° 0 mm 3 mps 690 mmHg 41%
    12:00 +13°C° 0 mm 3 mps 690 mmHg 38%
    13:00 +16°C° 0 mm 3 mps 690 mmHg 34%
    14:00 +16°C° 0 mm 3 mps 690 mmHg 35%
    15:00 +16°C° 0 mm 3 mps 689 mmHg 36%
    16:00 +16°C° 0 mm 2 mps 689 mmHg 37%
    17:00 +14°C° 0 mm 2 mps 689 mmHg 42%
    18:00 +13°C° 0 mm 2 mps 689 mmHg 46%
    19:00 +11°C° 0 mm 1 mps 689 mmHg 51%
    20:00 +11°C° 0 mm 1 mps 689 mmHg 52%
    21:00 +11°C° 0 mm 1 mps 689 mmHg 53%
    22:00 +10°C° 0 mm 1 mps 689 mmHg 54%
    23:00 +10°C° 0 mm 1 mps 689 mmHg 55%

    20 Diciembre, Jueves

    Tiempo Temperatura Precipitaciones Viento Presión Humedad
    00:00 +10°C° 0 mm 1 mps 689 mmHg 56%
    01:00 +9°C° 0 mm 1 mps 689 mmHg 56%
    02:00 +9°C° 0 mm 1 mps 689 mmHg 58%
    03:00 +9°C° 0 mm 1 mps 689 mmHg 59%
    04:00 +8°C° 0 mm 1 mps 688 mmHg 60%
    05:00 +8°C° 0 mm 1 mps 689 mmHg 61%
    06:00 +8°C° 0 mm 1 mps 689 mmHg 62%
    07:00 +8°C° 0 mm 1 mps 689 mmHg 63%
    08:00 +9°C° 0 mm 1 mps 690 mmHg 57%
    09:00 +11°C° 0 mm 1 mps 691 mmHg 52%
    10:00 +13°C° 0 mm 1 mps 691 mmHg 46%
    11:00 +13°C° 0 mm 1 mps 691 mmHg 44%
    12:00 +14°C° 0 mm 2 mps 691 mmHg 43%
    13:00 +15°C° 0 mm 2 mps 691 mmHg 41%
    14:00 +15°C° 0 mm 2 mps 691 mmHg 42%
    15:00 +15°C° 0 mm 2 mps 691 mmHg 43%
    16:00 +14°C° 0 mm 3 mps 691 mmHg 43%
    17:00 +13°C° 0 mm 2 mps 691 mmHg 50%
    18:00 +12°C° 0 mm 2 mps 691 mmHg 57%
    19:00 +10°C° 0 mm 2 mps 691 mmHg 63%
    20:00 +9°C° 0 mm 2 mps 691 mmHg 67%
    21:00 +10°C° 0 mm 1 mps 692 mmHg 70%
    22:00 +9°C° 0 mm 1 mps 692 mmHg 74%
    23:00 +9°C° 0 mm 1 mps 692 mmHg 75%

    21 Diciembre, Viernes

    Tiempo Temperatura Precipitaciones Viento Presión Humedad
    00:00 +9°C° 0 mm 1 mps 692 mmHg 76%
    01:00 +9°C° 0 mm 1 mps 692 mmHg 77%
    02:00 +8°C° 0 mm 0 mps 692 mmHg 79%
    03:00 +7°C° 0 mm 0 mps 692 mmHg 81%
    04:00 +7°C° 0 mm 0 mps 692 mmHg 84%
    05:00 +7°C° 0 mm 0 mps 692 mmHg 86%
    06:00 +6°C° 0 mm 0 mps 692 mmHg 88%
    07:00 +6°C° 0 mm 0 mps 692 mmHg 90%
    08:00 +7°C° 0 mm 0 mps 693 mmHg 84%
    09:00 +8°C° 0 mm 0 mps 693 mmHg 78%
    10:00 +9°C° 0 mm 0 mps 694 mmHg 73%
    11:00 +11°C° 0 mm 1 mps 694 mmHg 67%
    12:00 +12°C° 0 mm 1 mps 694 mmHg 61%
    13:00 +13°C° 0 mm 1 mps 694 mmHg 56%
    14:00 +13°C° 0 mm 1 mps 694 mmHg 54%
    15:00 +13°C° 0 mm 2 mps 694 mmHg 53%
    16:00 +14°C° 0 mm 2 mps 694 mmHg 51%
    17:00 +13°C° 0 mm 2 mps 694 mmHg 56%
    18:00 +12°C° 0 mm 1 mps 694 mmHg 61%
    19:00 +11°C° 0 mm 1 mps 694 mmHg 66%
    20:00 +10°C° 0 mm 1 mps 694 mmHg 70%
    21:00 +9°C° 0 mm 1 mps 694 mmHg 73%
    22:00 +9°C° 0 mm 1 mps 694 mmHg 77%
    23:00 +7°C° 0 mm 0 mps 694 mmHg 79%

    22 Diciembre, Sábado

    Tiempo Temperatura Precipitaciones Viento Presión Humedad
    00:00 +7°C° 0 mm 0 mps 694 mmHg 81%
    01:00 +6°C° 0 mm 0 mps 694 mmHg 82%
    02:00 +6°C° 0 mm 0 mps 694 mmHg 83%
    03:00 +7°C° 0 mm 1 mps 693 mmHg 83%
    04:00 +7°C° 0 mm 1 mps 693 mmHg 83%
    05:00 +7°C° 0 mm 1 mps 693 mmHg 84%
    06:00 +7°C° 0 mm 1 mps 694 mmHg 84%
    07:00 +6°C° 0 mm 1 mps 694 mmHg 84%
    08:00 +8°C° 0 mm 1 mps 694 mmHg 77%
    09:00 +9°C° 0 mm 1 mps 695 mmHg 69%
    10:00 +11°C° 0 mm 1 mps 695 mmHg 62%
    11:00 +12°C° 0 mm 2 mps 695 mmHg 56%
    12:00 +13°C° 0 mm 2 mps 695 mmHg 50%
    13:00 +14°C° 0 mm 2 mps 695 mmHg 44%
    14:00 +14°C° 0 mm 2 mps 695 mmHg 42%
    15:00 +15°C° 0 mm 2 mps 694 mmHg 41%
    16:00 +15°C° 0 mm 2 mps 694 mmHg 40%
    17:00 +13°C° 0 mm 2 mps 694 mmHg 45%
    18:00 +12°C° 0 mm 1 mps 694 mmHg 51%
    19:00 +10°C° 0 mm 1 mps 694 mmHg 57%
    20:00 +10°C° 0 mm 1 mps 694 mmHg 58%
    21:00 +8°C° 0 mm 0 mps 694 mmHg 60%
    22:00 +8°C° 0 mm 0 mps 694 mmHg 61%
    23:00 +8°C° 0 mm 0 mps 693 mmHg 61%
    Mostrar más